Regional Weather Roundup
Issued by NWS

Home | Current Version | Previous Version | Graphics & Text | Print | Product List | Glossary On
Versions: 1 2 3 4 5 6 7 8 9 10 11 12 13 14 15 16 17 18 19 20 21 22 23 24 25 26 27
000
ASUS45 KTFX 230310
RWRMT
MONTANA REGIONAL WEATHER ROUNDUP
NATIONAL WEATHER SERVICE GREAT FALLS MT
800 PM MST SUN JAN 22 2017

NOTE: "FAIR" INDICATES FEW OR NO CLOUDS BELOW 12000 FEET WITH NO
SIGNIFICANT WEATHER AND/OR OBSTRUCTIONS TO VISIBILITY.

MTZ001>007-043-230400-
WEST OF THE DIVIDE

CITY           SKY/WX    TMP DP  RH WIND       PRES   REMARKS
KALISPELL      CLOUDY    25  24  96 CALM      29.61S FOG
MISSOULA       LGT SNOW  29  28  96 E7        29.64S FOG     WCI  22
BUTTE          CLOUDY    25  21  85 CALM      29.61F
MULLAN PASS    LGT SNOW  24  21  88 SE5       29.50S VSB 3/4
ANACONDA         N/A     28  21  74 CALM      29.61F
DEER LODGE       N/A     30  25  80 CALM      29.64F
EUREKA           N/A     23  21  93 CALM      29.66S
HAMILTON         N/A     30  28  93 CALM      29.62F
$$

MTZ008-052>055-230400-
SOUTHWEST MONTANA

CITY           SKY/WX    TMP DP  RH WIND       PRES   REMARKS
BOZEMAN        CLOUDY    31  19  61 W6        29.65S WCI  25
DILLON         CLOUDY   N/A N/A N/A CALM      29.62S
W YELLOWSTONE  LGT SNOW  23  23 100 E6        29.68F WCI  16
ENNIS          CLOUDY    32  19  59 S22G32    29.67S WCI  19
$$

MTZ009-010-012-014-046-048-049-054-230400-
EAST SLOPES AND CENTRAL MONTANA

CITY           SKY/WX    TMP DP  RH WIND       PRES   REMARKS
CUT BANK       FOG       24  23  96 NE9       29.72S VSB 1   WCI  14
GREAT FALLS    FOG       24  23  96 NE9       29.70R VSB 1/4 WCI  14
MALMSTROM AFB  FOG       24  24 100 NE13      29.71S VSB 5/8 WCI  12
HELENA         CLOUDY    18  13  80 CALM      29.67S HAZE
AUGUSTA          N/A     21  21  99 NE13      29.68R WCI   9
BOWMANS CRNR   FOG       21  21  98 N13       29.66R VSB 3/8 WCI   9
CHOTEAU        FOG       23  23 100 N8        29.73S VSB 0   WCI  14
POWER          FOG       23  22  97 NE8       29.70S VSB 3/8 WCI  13
RAYNESFORD     MOCLDY    28  24  84 SE8       29.66F WCI  20
ULM            FOG       25  25  99 MISG      29.70R VSB 3/4
$$

MTZ011-013-016-021-045-047-050-051-230400-
NORTH CENTRAL MONTANA

CITY           SKY/WX    TMP DP  RH WIND       PRES   REMARKS
HAVRE          CLOUDY    28  26  92 SE6       29.78S WCI  22
LEWISTOWN      CLOUDY    25  21  85 E7        29.67F WCI  17
CHINOOK          N/A     28  25  86 E3        29.79S
DENTON         SNOW      24  23  97 E14       29.68S VSB 1/8 WCI  11
FORT BENTON      N/A     27  25  93 MISG      29.75F
GEYSER         FOG       25  24  97 E5        29.68F VSB 3/8
GRASS RANGE    FOG       24  24  99 CALM      29.69F VSB 3/8
JUDITH GAP     MOCLDY    26  17  67 S9        29.65F WCI  17
ROY            FOG       23  22  98 MISG      29.70F VSB 1/2
STANFORD       FOG       21  21 100 NW5       29.66F VSB 3/8
WINIFRED       FRZ RAIN  24  24  99 E14       29.69F VSB 3/8 WCI  11
$$

MTZ017>020-022>027-061-062-230400-
NORTHEAST MONTANA

CITY           SKY/WX    TMP DP  RH WIND       PRES   REMARKS
GLASGOW        CLOUDY    29  25  85 SW6       29.79F WCI  23
JORDAN           N/A     28  24  85 SE6       29.79F WCI  22
SIDNEY         CLOUDY    28  24  85 CALM      29.82F
WOLF POINT     CLOUDY    30  25  81 CALM      29.81F
PLENTYWOOD       N/A    N/A N/A N/A W6        29.79F
POPLAR           N/A     28  25  86 SW3       29.82F
$$

MTZ028>42-056>058-230400-
SOUTHCENTRAL AND SOUTHEAST MONTANA

CITY           SKY/WX    TMP DP  RH WIND       PRES   REMARKS
BAKER          CLOUDY    24  21  88 NW6       29.81F WCI  17
BILLINGS       CLOUDY    26  20  77 N6        29.70F WCI  19
LIVINGSTON     CLOUDY    31  18  58 SE7       29.64F WCI  24
MILES CITY     CLOUDY    24  21  88 S5        29.80F
BIG TIMBER     CLOUDY    30  18  59 SE7       29.68S WCI  23
FORSYTH          N/A     19  19 100 SE7       29.78F VSB 1/4 WCI  10
HARLOWTON      MOCLDY    27  22  80 E13       29.67F WCI  16
$$

REGIONAL REPORTS...DAKOTAS

CITY           SKY/WX    TMP DP  RH WIND       PRES   REMARKS
WILLISTON      CLOUDY    28  23  81 W7        29.81F WCI  21
MINOT          CLOUDY    31  27  85 W10       29.77S WCI  22
DICKINSON      CLOUDY    25  22  88 NW13      29.79F WCI  14
BEACH          CLOUDY    25  25 100 NW8       29.83F WCI  16
CROSBY         CLOUDY    27  23  86 W15       29.81F WCI  15
TIOGA          CLOUDY    27  27 100 W13       29.79F WCI  16
WATFORD CITY   CLOUDY    27  25  93 W9        29.81F WCI  17
BISMARCK       CLOUDY    32  26  78 W8        29.84S WCI  25
GRAND FORKS    CLOUDY    34  29  82 W12       29.77R WCI  25
FARGO          CLOUDY    35  30  82 NW5       29.79S
BUFFALO SD       N/A     20  18  92 NW7       29.74F WCI  11
RAPID CITY     CLEAR     27  20  75 E3        29.82F
$$

REGIONAL REPORTS...WYOMING/IDAHO/WASHINGTON

CITY           SKY/WX    TMP DP  RH WIND       PRES   REMARKS
GILLETTE       CLEAR     31  19  61 S17       29.73F WCI  19
SHERIDAN       CLOUDY    21  17  84 VRB6      29.72F WCI  13
BUFFALO WY     CLOUDY    24  13  62 CALM      29.70F
CODY           CLOUDY    23  16  74 S3        29.71R
YELLOWSTONE LA   N/A     19  17  92 CALM      29.70S
IDAHO FALLS    LGT SNOW  30  30 100 W3        29.71F FOG
SALMON         CLOUDY    19  16  86 CALM      29.67S
BOISE          MOCLDY    34  30  85 W6        29.65S WCI  29
SPOKANE        LGT SNOW  33  32  96 SE8       29.57S FOG     WCI  26
$$

REGIONAL REPORTS...ALBERTA

CITY           SKY/WX    TMP DP  RH WIND       PRES   REMARKS
EDMONTON       CLOUDY    16   9  73 NE2       29.89S
CALGARY        LGT SNOW  21  19  93 E6        29.77S FOG     WCI  14
LETHBRIDGE     CLOUDY    25  23  93 NE5       29.80R FOG
MEDICINE HAT   LGT SNOW  21  21 100 N6        29.82S VSB 1   WCI  14
WATERTON GATE    N/A     23  21  93 NE5         N/A
CARDSTON         N/A     23  23 100 E2          N/A
MILK RIVER       N/A     23  23 100 E3          N/A
ONEFOUR          N/A     25  25 100 NW8         N/A  WCI  16
$$

REGIONAL REPORTS...SASKATCHEWAN

CITY           SKY/WX    TMP DP  RH WIND       PRES   REMARKS
SWIFT CURRENT  CLOUDY    19  19 100 NW10      29.76S WCI   8
REGINA         CLOUDY    23  19  86 W15       29.77F WCI  10
SASKATOON      LGT SNOW  18  14  86 NW9       29.82F WCI   6
CYPRESS HILLS    N/A     18  14  86 N2          N/A
VAL MARIE        N/A     27  25  93 NE3         N/A
ROCKGLEN         N/A     25  23  93 NW7         N/A  WCI  17
$$




USA.gov is the U.S. government's official web portal to all federal, state and local government web resources and services.